Temp
13 13 13 13 13 13 13 12 12 12 11 11 11 10 10 10 10 10 9 9 9 9 9 9 9 9 9 9 9 10 10 10 10 9 9 10 9 10 9 9 9 9
13 13 13 13 13 13 13 13 12 12 11 11 10 10 10 10 10 10 10 9 9 9 9 9 9 9 9 9 10 10 10 10 9 9 9 9 9 9 9 9 9 9
13 13 13 13 13 13 13 13 12 12 11 11 10 10 10 10 10 10 10 9 9 9 9 9 9 9 9 9 9 9 9 9 9 9 9 9 8 8 8 8 8 8
13 13 13 13 13 13 13 12 12 12 12 11 11 10 10 10 10 10 10 9 9 9 9 9 9 9 9 9 9 9 9 9 9 9 9 9 9 8 8 8 8 8
13 13 13 13 13 13 12 12 13 12 12 11 11 10 10 10 10 10 10 9 9 9 9 9 9 9 8 8 9 9 9 9 9 9 9 9 9 9 9 8 8 7
13 13 13 13 13 12 12 12 12 12 12 11 11 10 10 10 10 9 9 9 9 9 9 9 9 9 8 8 9 9 9 9 9 9 9 9 9 9 9 9 8 8
13 12 12 12 12 12 12 12 12 12 12 11 11 10 10 10 10 9 9 9 9 9 9 9 9 9 9 9 9 9 9 9 9 9 9 9 9 9 9 9 9 9
13 12 12 12 12 12 12 12 12 12 12 11 10 10 10 10 9 9 9 9 9 8 8 9 9 9 9 9 9 9 9 9 9 9 9 9 9 9 9 8 8 8
13 12 12 12 12 12 12 12 12 12 11 11 10 10 10 9 9 9 9 8 8 8 8 8 8 8 8 8 9 9 9 9 9 9 9 9 9 9 9 9 8 8
13 13 12 12 12 12 12 12 11 12 11 11 10 10 9 9 9 9 8 8 8 8 8 8 8 8 8 8 9 9 9 9 9 9 9 8 9 9 9 9 8 8
13 13 13 13 12 12 12 12 11 11 11 11 10 10 9 9 9 8 8 8 8 8 8 8 8 8 8 8 8 8 9 9 8 8 8 8 8 8 8 8 8 7
12 13 13 13 13 13 13 12 11 11 11 11 10 10 9 9 8 8 8 8 8 8 7 7 7 7 7 7 7 8 8 8 8 7 7 7 7 7 7 7 7 6
11 12 12 13 13 12 12 12 11 11 11 11 10 10 9 9 8 8 8 7 7 7 7 7 6 6 6 6 6 7 7 7 7 7 7 7 7 7 6 6 6 6
11 11 11 12 12 12 11 11 10 11 11 10 10 10 9 9 8 8 7 7 7 7 7 6 6 6 6 5 5 5 5 6 6 5 6 6 6 6 6 6 6 6
10 10 10 10 11 11 10 10 10 10 10 10 10 9 9 8 8 7 7 7 7 7 6 6 6 5 5 5 4 4 4 4 4 4 5 5 5 5 5 5 5 5
10 10 10 10 10 10 10 10 10 10 10 10 9 9 8 8 7 7 7 7 6 6 6 6 5 5 4 4 4 3 3 3 4 4 4 4 4 4 4 4 4 4
10 10 9 10 10 9 10 10 10 10 9 9 8 8 8 7 7 7 6 6 6 6 6 5 5 4 4 3 3 3 3 3 3 3 3 3 3 3 4 4 4 4
11 11 10 9 9 9 9 10 10 9 8 8 8 7 7 7 7 6 6 6 6 5 5 5 5 4 4 3 3 3 3 3 3 3 3 3 3 3 3 3 3 3
11 10 9 9 9 9 9 9 9 9 8 8 7 7 7 7 6 6 6 6 5 5 5 5 4 4 4 3 3 3 3 3 3 3 3 3 3 3 3 3 3 3
10 10 9 9 8 8 9 8 8 8 8 7 7 7 6 6 6 6 6 5 5 4 5 5 4 4 3 3 3 3 3 3 3 3 3 3 3 2 2 2 3 3
10 9 8 8 8 8 8 8 8 7 7 6 6 6 6 6 6 6 5 5 4 4 4 4 4 3 3 3 3 3 3 3 2 2 2 2 2 2 2 2 2 2
10 9 8 7 7 7 7 8 7 7 6 6 6 5 6 6 6 5 5 4 4 4 4 4 4 3 3 3 3 3 2 2 2 2 1 1 2 2 2 2 2 2
9 8 7 7 7 7 7 7 7 7 6 6 5 5 5 5 5 4 4 4 4 4 4 4 3 3 3 3 2 2 2 1 1 1 0 1 1 1 1 1 1 1
8 7 7 7 7 7 7 7 6 6 6 5 5 5 5 5 4 4 4 3 3 3 3 3 3 2 2 2 2 1 1 0 0 -0 -0 0 0 0 0 0 1 1
8 7 6 6 7 7 7 6 6 6 5 5 5 5 4 4 4 3 3 3 3 3 3 3 2 2 2 1 1 1 0 -0 -0 -1 -1 -0 -0 -0 -0 -0 -0 -0
8 7 6 6 6 6 6 6 5 5 5 4 4 4 4 4 3 3 2 2 3 3 2 2 2 1 1 1 1 0 -0 -1 -1 -1 -1 -1 -1 -1 -1 -1 -1 -1
Height
1519 1521 1522 1524 1524 1525 1525 1525 1525 1526 1527 1527 1528 1528 1529 1529 1529 1530 1530 1530 1530 1530 1530 1529 1529 1529 1530 1530 1530 1529 1529 1529 1528 1527 1527 1526 1526 1526 1526 1526 1526 1526
1518 1519 1521 1522 1523 1524 1524 1524 1525 1525 1526 1526 1527 1527 1527 1528 1529 1529 1529 1529 1529 1529 1529 1529 1529 1529 1529 1529 1529 1528 1528 1528 1528 1527 1527 1526 1526 1525 1525 1525 1525 1525
1516 1517 1518 1520 1521 1522 1523 1523 1524 1524 1524 1525 1525 1526 1526 1527 1527 1528 1528 1528 1528 1529 1528 1528 1528 1528 1528 1528 1528 1528 1527 1527 1527 1526 1526 1525 1525 1525 1524 1524 1524 1523
1513 1514 1516 1517 1519 1520 1521 1522 1522 1523 1523 1524 1524 1525 1525 1525 1526 1526 1526 1527 1527 1527 1527 1527 1527 1527 1527 1527 1527 1526 1526 1526 1526 1525 1525 1525 1524 1524 1523 1523 1523 1522
1512 1513 1514 1516 1517 1518 1519 1520 1520 1521 1521 1522 1523 1524 1524 1524 1525 1525 1525 1525 1525 1526 1526 1526 1526 1526 1526 1526 1525 1525 1525 1524 1524 1524 1524 1524 1523 1522 1522 1521 1521 1521
1513 1514 1514 1515 1515 1516 1517 1517 1518 1519 1519 1521 1522 1522 1523 1523 1524 1524 1524 1524 1524 1524 1524 1524 1524 1524 1524 1524 1524 1523 1523 1523 1523 1522 1522 1522 1522 1521 1521 1520 1519 1519
1511 1512 1513 1514 1514 1514 1515 1516 1517 1517 1518 1519 1520 1521 1522 1522 1523 1523 1523 1523 1523 1523 1523 1523 1523 1523 1523 1523 1523 1522 1522 1521 1521 1521 1520 1520 1519 1519 1519 1518 1518 1517
1509 1510 1511 1512 1512 1512 1513 1513 1514 1515 1515 1516 1517 1518 1519 1520 1521 1521 1521 1522 1522 1522 1522 1522 1522 1522 1521 1521 1521 1521 1520 1520 1519 1519 1519 1518 1517 1517 1516 1516 1515 1515
1506 1506 1508 1508 1509 1509 1510 1511 1512 1513 1513 1514 1515 1516 1517 1518 1518 1519 1520 1520 1520 1520 1520 1520 1520 1520 1520 1520 1519 1519 1518 1518 1518 1517 1516 1516 1515 1515 1514 1513 1512 1512
1500 1500 1502 1503 1504 1505 1506 1507 1509 1510 1511 1511 1512 1513 1514 1515 1515 1516 1517 1518 1518 1519 1519 1519 1519 1518 1518 1518 1517 1516 1516 1516 1515 1515 1514 1514 1513 1512 1511 1510 1509 1509
1496 1495 1496 1497 1499 1500 1501 1502 1504 1506 1507 1508 1509 1510 1511 1512 1513 1514 1514 1515 1516 1517 1517 1517 1517 1516 1516 1515 1515 1514 1513 1513 1513 1512 1512 1511 1511 1510 1509 1508 1507 1506
1491 1492 1492 1492 1493 1495 1496 1497 1499 1501 1503 1504 1505 1506 1508 1509 1510 1511 1512 1512 1513 1514 1514 1515 1515 1515 1514 1513 1512 1512 1511 1510 1510 1510 1509 1509 1508 1507 1506 1505 1504 1503
1486 1488 1488 1489 1490 1491 1492 1494 1495 1497 1499 1500 1501 1502 1504 1505 1507 1508 1509 1510 1510 1511 1511 1512 1512 1512 1512 1511 1510 1509 1509 1508 1507 1507 1506 1505 1505 1504 1503 1502 1501 1501
1482 1483 1485 1486 1487 1488 1490 1493 1495 1497 1496 1497 1498 1499 1500 1501 1502 1504 1506 1507 1507 1508 1508 1509 1509 1509 1509 1509 1508 1507 1506 1506 1505 1504 1503 1502 1501 1500 1500 1499 1498 1498
1479 1479 1481 1482 1483 1484 1487 1490 1493 1495 1495 1494 1494 1495 1497 1498 1499 1501 1502 1504 1504 1505 1505 1506 1506 1507 1507 1506 1506 1505 1504 1503 1502 1501 1500 1498 1497 1497 1496 1495 1495 1494
1476 1476 1477 1479 1479 1480 1483 1486 1487 1489 1490 1490 1491 1493 1494 1496 1497 1498 1499 1501 1501 1501 1502 1503 1504 1504 1505 1505 1504 1503 1502 1501 1500 1498 1497 1496 1494 1493 1492 1492 1491 1491
1473 1473 1474 1475 1476 1478 1480 1482 1483 1484 1485 1486 1488 1491 1493 1494 1495 1497 1498 1498 1499 1499 1500 1500 1501 1502 1503 1503 1502 1501 1499 1498 1497 1496 1495 1493 1492 1490 1489 1488 1487 1486
1470 1470 1471 1471 1473 1475 1476 1477 1479 1480 1483 1486 1487 1487 1489 1492 1494 1495 1496 1497 1497 1497 1498 1499 1499 1500 1500 1500 1500 1499 1497 1496 1495 1494 1492 1491 1490 1488 1486 1484 1483 1482
1468 1468 1468 1468 1470 1472 1473 1474 1475 1476 1478 1481 1483 1484 1484 1487 1490 1493 1494 1494 1495 1496 1496 1497 1498 1498 1498 1498 1497 1496 1495 1494 1493 1491 1490 1489 1487 1485 1484 1482 1480 1478
1465 1465 1465 1466 1468 1470 1471 1472 1473 1474 1476 1478 1481 1482 1482 1483 1486 1489 1491 1492 1493 1494 1494 1495 1495 1495 1495 1495 1495 1494 1493 1491 1490 1489 1487 1486 1485 1483 1481 1478 1477 1475
1462 1462 1462 1463 1465 1466 1468 1469 1470 1473 1475 1478 1480 1481 1482 1483 1485 1487 1489 1490 1491 1491 1491 1492 1492 1493 1493 1492 1492 1491 1490 1488 1487 1485 1484 1483 1482 1480 1478 1475 1474 1472
1460 1459 1460 1460 1462 1463 1464 1465 1467 1470 1473 1475 1477 1479 1480 1481 1484 1486 1487 1489 1489 1488 1488 1489 1490 1490 1490 1489 1488 1488 1486 1485 1483 1482 1480 1479 1477 1476 1474 1472 1470 1468
1457 1456 1457 1457 1459 1460 1461 1462 1465 1468 1471 1473 1475 1476 1478 1480 1482 1485 1486 1487 1488 1487 1487 1488 1488 1488 1487 1486 1485 1484 1483 1481 1480 1478 1476 1474 1472 1471 1469 1467 1466 1464
1453 1453 1454 1455 1456 1457 1459 1460 1463 1465 1468 1471 1474 1475 1476 1479 1481 1483 1484 1486 1487 1486 1486 1486 1486 1485 1484 1483 1483 1482 1480 1478 1476 1474 1471 1469 1467 1465 1463 1462 1460 1459
1450 1450 1451 1452 1454 1455 1456 1459 1461 1464 1466 1469 1472 1474 1475 1477 1479 1480 1482 1484 1485 1486 1485 1484 1484 1483 1482 1481 1480 1479 1477 1475 1472 1470 1467 1464 1462 1460 1458 1457 1455 1454
1446 1447 1448 1450 1451 1452 1454 1457 1459 1462 1464 1466 1469 1471 1473 1475 1477 1478 1481 1482 1484 1484 1484 1483 1482 1482 1480 1479 1477 1476 1474 1472 1469 1466 1463 1460 1458 1456 1453 1451 1450 1448
Wind_Speed
21 20 18 17 13 10 9 9 8 7 7 6 6 6 6 6 5 5 5 4 3 1 1 2 2 2 3 4 5 6 7 8 9 9 9 9 10 10 10 11 13 14
22 21 20 19 17 13 12 11 9 9 8 8 7 7 7 7 6 6 5 4 3 2 2 3 4 4 4 5 6 8 9 9 10 10 10 10 10 10 10 11 12 13
24 23 22 21 20 17 14 13 11 10 10 10 10 10 9 8 8 7 6 5 4 3 4 5 5 5 5 5 7 8 9 11 11 12 12 12 11 11 11 11 12 13
25 24 23 22 21 19 17 15 13 12 13 12 12 12 11 10 10 9 8 7 6 5 6 7 7 7 6 6 7 9 10 12 13 13 14 14 14 13 13 12 12 13
25 25 24 23 22 21 19 18 16 15 14 14 14 14 13 12 11 10 9 8 8 8 8 9 9 9 8 8 9 10 12 14 15 16 16 16 16 16 16 16 15 15
29 28 26 24 23 22 22 20 17 17 16 15 15 15 14 13 13 12 11 10 10 10 11 11 11 11 11 11 11 12 14 15 16 18 18 19 19 19 19 19 19 18
31 31 30 28 26 25 24 22 19 18 18 17 17 17 16 15 14 14 13 12 12 12 13 13 13 13 13 13 13 14 15 16 18 19 20 21 22 22 22 21 21 21
29 32 33 32 31 29 27 25 22 20 19 19 19 19 18 17 16 16 15 15 15 15 15 15 15 15 15 15 15 15 16 17 19 20 22 24 24 25 25 24 24 23
29 32 35 36 35 33 31 29 25 22 21 21 20 20 20 19 18 17 17 17 17 18 18 17 17 17 17 17 17 17 17 18 20 22 23 25 26 26 27 27 27 26
32 32 34 38 39 36 34 32 28 25 23 22 21 21 21 20 20 20 19 19 20 20 20 19 19 19 19 19 18 18 18 20 21 23 24 25 26 27 28 28 28 28
36 35 33 36 40 40 37 35 32 28 25 24 23 22 22 21 21 22 21 21 21 21 20 20 20 20 20 20 19 19 20 21 23 24 24 25 25 26 27 28 29 29
36 39 38 37 39 41 41 39 36 31 28 26 25 24 23 23 23 22 22 22 21 21 21 20 20 20 20 20 19 19 21 23 24 24 24 25 26 26 27 27 28 29
32 37 40 41 40 42 43 42 38 33 30 28 27 25 24 24 24 23 23 22 21 21 20 20 19 20 20 20 20 21 22 23 24 25 26 27 28 28 28 28 28 28
30 33 37 39 41 43 43 40 36 34 32 30 28 27 26 25 25 25 24 23 21 21 20 20 20 20 20 20 21 21 22 23 25 26 28 29 29 29 29 29 28 28
28 31 34 36 39 41 40 37 35 35 34 32 29 28 26 26 25 25 24 23 22 21 20 20 20 20 20 20 21 21 22 24 26 28 29 29 29 29 29 28 28 28
25 29 31 33 36 37 37 37 36 37 38 35 30 28 26 26 26 25 24 23 22 21 20 19 18 19 19 19 19 21 23 24 25 26 26 27 28 28 28 28 28 28
22 25 28 30 32 33 35 37 37 38 39 34 29 27 26 25 25 23 23 22 21 20 18 17 17 17 18 18 19 21 21 22 23 23 24 26 27 28 29 29 29 29
21 23 26 29 30 30 34 38 38 38 36 31 29 29 27 25 23 22 22 21 19 17 16 15 15 16 17 18 19 19 19 20 21 22 23 24 25 27 28 29 29 30
21 23 25 29 30 29 32 37 39 39 37 34 32 31 28 26 24 23 21 20 18 15 13 13 14 15 16 16 17 18 19 21 22 23 24 25 26 26 27 28 29 30
21 22 24 27 29 30 32 35 39 39 37 34 32 29 27 26 24 23 21 18 16 13 12 13 14 14 14 14 16 19 21 22 23 24 26 26 27 27 28 28 29 30
21 21 24 26 28 29 31 36 39 38 34 32 29 26 24 23 21 20 18 15 13 12 12 13 13 13 13 15 17 19 21 22 24 26 28 28 29 29 29 30 29 30
21 20 23 26 28 29 32 37 39 36 33 31 28 25 23 20 18 16 15 13 13 12 13 13 13 13 14 17 19 20 22 24 26 28 30 31 31 32 32 31 31 31
21 20 23 26 28 30 34 38 39 36 34 31 28 25 21 17 15 13 12 12 13 13 13 13 13 14 16 18 19 20 23 25 27 29 32 33 34 35 35 34 33 32
22 21 24 27 28 30 34 37 39 37 32 27 24 21 17 14 12 12 12 13 14 14 14 13 12 14 17 18 19 21 23 25 28 31 34 36 37 38 37 37 36 34
22 21 24 27 30 30 32 36 38 35 30 25 21 17 14 12 12 12 12 13 14 14 14 12 12 15 18 19 20 21 23 25 29 33 35 37 39 40 40 39 38 37
21 20 22 26 30 31 32 38 38 33 28 24 20 16 13 12 11 11 11 12 14 14 14 13 14 16 18 20 20 21 23 25 29 33 36 38 40 41 42 42 40 39
Wind_Direction
216 219 225 230 227 217 217 218 212 211 219 227 231 226 221 218 210 201 197 203 217 231 293 323 322 324 337 350 351 350 349 350 349 345 336 328 322 315 305 294 284 276
220 220 224 230 232 226 224 224 220 218 221 226 233 235 235 232 226 220 217 221 233 253 286 302 305 306 319 332 338 340 341 341 343 343 339 332 326 318 310 302 293 284
224 221 222 227 230 228 226 226 223 222 223 225 230 235 238 239 237 236 236 242 252 268 284 291 290 288 300 318 325 327 330 333 335 336 336 333 329 324 315 307 301 294
227 224 221 224 228 228 227 228 226 222 223 227 230 236 239 239 240 242 245 251 261 272 282 287 287 285 293 309 317 320 324 327 326 326 326 325 324 322 318 313 307 301
232 230 226 224 227 228 227 227 227 225 225 228 233 240 243 243 245 247 248 253 261 271 279 286 290 290 295 306 313 319 323 324 323 322 320 318 318 317 317 317 314 311
240 238 235 232 232 233 231 229 229 227 227 229 234 241 246 247 248 250 251 254 260 269 275 281 287 288 290 297 304 311 316 319 320 320 320 319 318 315 315 314 314 315
247 245 242 240 238 238 237 234 232 231 229 230 234 240 245 247 248 250 252 254 259 265 269 274 278 279 278 283 292 300 307 314 316 318 319 320 320 318 316 314 312 311
250 250 247 245 242 242 241 238 235 234 233 233 234 237 242 243 244 246 248 251 257 261 265 269 270 269 269 273 282 290 299 306 310 314 317 317 318 317 316 315 313 310
249 253 250 248 246 244 243 240 237 235 235 235 235 237 240 240 239 239 242 246 252 258 263 266 267 266 265 268 275 283 292 300 305 309 312 314 316 316 314 313 311 310
243 250 250 248 246 245 243 241 238 235 235 235 235 236 237 237 235 234 236 241 247 253 260 264 266 266 265 267 273 281 289 296 301 305 308 311 313 312 311 309 308 308
238 245 249 247 245 244 244 240 236 234 233 233 233 233 234 233 233 233 235 238 244 250 256 261 263 263 264 268 274 281 289 295 299 302 306 308 308 307 306 306 305 305
243 243 246 248 247 245 245 241 235 231 231 231 231 230 229 229 230 233 235 238 242 248 253 257 258 259 262 268 276 284 290 294 298 301 303 304 304 305 306 307 306 305
256 251 250 252 251 249 246 241 234 229 229 230 229 227 225 225 226 230 234 237 241 246 250 252 254 257 263 270 278 285 290 294 297 300 301 303 305 307 309 309 308 307
266 263 260 257 254 250 247 242 236 232 230 230 227 225 224 222 223 227 230 234 239 242 245 248 252 259 266 275 282 288 293 296 299 302 303 306 307 308 309 310 309 308
270 269 266 262 258 253 247 242 239 235 232 229 226 223 221 219 220 224 227 231 235 238 241 247 253 262 271 279 286 292 297 299 302 305 307 308 309 310 310 310 310 309
273 271 270 267 263 257 247 239 238 235 231 227 221 217 217 216 218 222 225 228 232 234 239 245 255 267 276 284 290 295 299 303 306 309 311 312 312 313 312 312 312 310
271 271 271 267 263 259 248 238 235 232 226 220 213 210 213 215 217 220 223 226 229 231 237 246 259 272 282 288 294 298 302 307 311 314 316 317 318 317 316 315 313 311
267 266 266 264 262 260 251 240 233 228 221 214 209 208 209 212 216 219 222 224 227 232 241 255 269 280 287 292 295 299 303 308 313 317 319 320 321 320 318 316 313 310
268 265 263 263 263 260 252 243 234 225 218 212 209 208 208 209 213 217 221 224 228 236 251 266 277 284 288 292 295 297 301 305 309 313 316 318 320 319 317 315 312 309
269 266 265 264 261 255 248 239 229 219 211 207 206 205 204 204 209 214 219 225 232 244 261 272 278 281 284 289 294 297 300 303 306 308 311 314 317 318 317 315 312 309
268 267 266 263 257 249 239 230 222 211 202 201 202 202 202 203 208 215 220 228 240 254 267 273 274 276 282 292 298 301 303 305 307 308 310 313 316 317 317 315 313 310
267 266 266 261 254 245 234 226 218 207 200 200 200 199 201 203 208 217 225 236 251 260 266 268 269 275 288 299 303 305 308 309 311 311 312 314 316 317 317 315 314 313
265 263 263 260 253 243 233 224 213 203 199 199 196 193 196 200 207 220 234 249 260 263 263 264 271 285 299 306 308 309 311 312 314 314 314 315 317 317 317 317 316 315
263 260 261 258 250 241 231 218 205 196 193 192 190 188 190 197 209 225 244 257 263 265 267 272 284 299 308 309 309 310 312 314 315 314 315 317 318 318 319 318 318 318
259 256 258 254 247 241 228 209 196 188 184 184 185 184 187 199 216 231 247 258 263 268 277 286 295 304 307 307 307 310 313 315 315 314 316 318 319 319 320 320 320 321
252 250 253 249 246 240 220 198 188 181 177 176 176 176 187 206 223 233 242 253 262 271 283 291 297 303 305 305 306 310 314 316 314 314 316 318 319 319 320 320 321 321